Flag for U.S.A. Weather past 2 weeks in Daly City, California, U.S.A.

Now
59 °F

Partly cloudy.


Feels Like: 59 °F
Forecast: 54 / 59 °F
Wind: 5 mph from South

Location: San Francisco International Airport

Current Time: Dec 18, 2014 at 6:24:01 PM

Latest Report: Dec 18, 2014 at 5:56 PM


Visibility: 10 mi

Pressure: 30.14 "Hg

Humidity: 78%

Dew point: 52 °F

Location of Daly CityLocation

Historic Weather in Daly City — Graph

°F

Daly City temperature yesterday

Maximum temperature yesterday: 59 °F (at 11:56 AM)
Minimum temperature yesterday: 50 °F (at 2:56 AM)
Average temperature yesterday: 54 °F

Past Weeks' High & Low Weather Summary

 TemperatureHumidityPressure
High67 °F (Dec 4, 2:56 PM)100% (Dec 3, 9:56 PM)30.23 "Hg (Dec 3, 9:56 PM)
Low49 °F (Dec 13, 3:56 AM)65% (Dec 16, 1:56 PM)29.51 "Hg (Dec 11, 6:56 AM)
Average58 °F91%30.00 "Hg
* Reported Dec 3 4:56 PM — Dec 18 4:56 PM, Daly City, Weather by CustomWeather, © 2014

Note: Actual official high and low records may vary slightly from our data, if they occured in-between our weather recording intervals... More about our weather records

Advertising

Daly City weather history for previous 24 hours

 ConditionsComfort  
Time TempWeatherWind HumidityBarometerVisibility
4:56 PM
Dec 18
59 °FMostly cloudy.No wind78%30.14 "Hg10 mi
3:56 PM59 °FBroken clouds.No wind84%30.13 "Hg10 mi
2:56 PM59 °FBroken clouds.No wind84%30.13 "Hg10 mi
1:56 PM58 °FPartly sunny.5 mph87%30.13 "Hg10 mi
12:56 PM58 °FPartly sunny.3 mph84%30.14 "Hg10 mi
11:56 AM57 °FPartly sunny.3 mph83%30.16 "Hg10 mi
10:56 AM56 °FOvercast.No wind84%30.19 "Hg10 mi
9:56 AM55 °FBroken clouds.No wind87%30.17 "Hg10 mi
8:56 AM54 °FPartly sunny.3 mph90%30.14 "Hg10 mi
7:56 AM53 °FPartly sunny.5 mph89%30.12 "Hg10 mi
6:56 AM53 °FMostly cloudy.6 mph89%30.11 "Hg10 mi
5:56 AM53 °FMostly cloudy.5 mph93%30.09 "Hg10 mi
4:56 AM52 °FMostly cloudy.3 mph97%30.08 "Hg10 mi
3:56 AM52 °FMostly cloudy.3 mph97%30.07 "Hg10 mi
2:56 AM53 °FPassing clouds.8 mph93%30.06 "Hg10 mi
1:56 AM52 °FMostly cloudy.No wind97%30.06 "Hg10 mi
12:56 AM53 °FLow clouds.7 mph93%30.06 "Hg8 mi
11:56 PM
Dec 17
53 °FRain. Low clouds.10 mph96%30.06 "Hg7 mi
10:56 PM53 °FLight rain. Fog.15 mph93%30.06 "Hg6 mi
9:56 PM53 °FLight rain. Fog.16 mph93%30.06 "Hg5 mi
8:56 PM53 °FLight rain. Fog.13 mph96%30.06 "Hg5 mi
7:56 PM54 °FOvercast.8 mph93%30.06 "Hg10 mi
6:56 PM54 °FLight rain. Mostly cloudy.9 mph97%30.05 "Hg10 mi
Weather by CustomWeather, © 2014

See weather overviewHow to use our weather pages